AAL1045 KMIA-KATL

Flight info

Callsign AAL1045
Flight time 1h 28m
Altitude 32000
Route FLMGO2 STYMY Q77 MJAMS/N0449F310 Q77 SHRKS/N0446F320 LAIRI LARZZ JJEDI4
Aircraft B738/M-SDE2E3FGHIRWXY/LB1

Departure

Time 2026-05-04 23:09
Airport Miami International Airport (KMIA)

Arrival

Time 2026-05-05 00:37
Airport Hartsfield Jackson Atlanta International Airport (KATL)
Time Latitude Longitude Altitude Speed Heading
2026-05-04 22:20 25.79822 -80.28317 14 ft 0 kts 178°
2026-05-04 22:57 25.79826 -80.28317 14 ft 3 kts 178°
2026-05-04 22:57 25.79853 -80.28318 15 ft 4 kts 178°
2026-05-04 22:58 25.79874 -80.28318 17 ft 4 kts 198°
2026-05-04 22:58 25.79888 -80.28303 17 ft 4 kts 266°
2026-05-04 22:58 25.79889 -80.28278 15 ft 2 kts 267°
2026-05-04 22:58 25.79889 -80.28277 15 ft 1 kts 267°
2026-05-04 23:03 25.79891 -80.28295 5 ft 4 kts 286°
2026-05-04 23:03 25.79922 -80.28313 14 ft 7 kts
2026-05-04 23:04 25.79984 -80.28314 14 ft 9 kts 354°
2026-05-04 23:04 25.80031 -80.28355 15 ft 9 kts 288°
2026-05-04 23:04 25.80032 -80.28424 14 ft 9 kts 267°
2026-05-04 23:04 25.80029 -80.28490 15 ft 8 kts 267°
2026-05-04 23:05 25.80027 -80.28554 17 ft 8 kts 269°
2026-05-04 23:05 25.80025 -80.28616 19 ft 8 kts 267°
2026-05-04 23:05 25.80022 -80.28675 20 ft 8 kts 267°
2026-05-04 23:05 25.80020 -80.28736 21 ft 8 kts 267°
2026-05-04 23:06 25.80017 -80.28807 21 ft 10 kts 267°
2026-05-04 23:06 25.80013 -80.28907 20 ft 16 kts 267°
2026-05-04 23:06 25.80006 -80.29054 19 ft 22 kts 266°
2026-05-04 23:06 25.79998 -80.29219 21 ft 21 kts 268°
2026-05-04 23:07 25.79993 -80.29380 16 ft 21 kts 268°
2026-05-04 23:07 25.79987 -80.29536 12 ft 20 kts 268°
2026-05-04 23:07 25.79980 -80.29687 13 ft 19 kts 267°
2026-05-04 23:07 25.79974 -80.29833 12 ft 19 kts 267°
2026-05-04 23:08 25.79979 -80.29973 11 ft 18 kts 285°
2026-05-04 23:08 25.80011 -80.30098 15 ft 10 kts 292°
2026-05-04 23:08 25.80066 -80.30122 14 ft 10 kts 40°
2026-05-04 23:08 25.80076 -80.29999 11 ft 38 kts 87°
2026-05-04 23:09 25.80100 -80.29443 14 ft 106 kts 86°
2026-05-04 23:09 25.80146 -80.28413 28 ft 160 kts 86°
2026-05-04 23:09 25.80207 -80.27172 733 ft 157 kts 85°
2026-05-04 23:09 25.80278 -80.25952 1510 ft 160 kts 82°
2026-05-04 23:10 25.80360 -80.24637 1949 ft 183 kts 84°
2026-05-04 23:10 25.80438 -80.23147 2306 ft 204 kts 85°
2026-05-04 23:10 25.80510 -80.21479 2525 ft 226 kts 85°
2026-05-04 23:10 25.80579 -80.19672 2780 ft 246 kts 86°
2026-05-04 23:11 25.80900 -80.17751 3068 ft 264 kts 65°
2026-05-04 23:11 25.82099 -80.16247 3848 ft 267 kts 30°
2026-05-04 23:11 25.83878 -80.15759 4711 ft 267 kts 360°
2026-05-04 23:11 25.85715 -80.15785 5737 ft 260 kts 358°
2026-05-04 23:12 25.87560 -80.15801 6445 ft 270 kts 357°
2026-05-04 23:12 25.89457 -80.15824 7103 ft 276 kts 355°
2026-05-04 23:12 25.91372 -80.16229 7566 ft 285 kts 337°
2026-05-04 23:12 25.93219 -80.17001 8443 ft 281 kts 337°
2026-05-04 23:13 25.95076 -80.17731 9159 ft 288 kts 337°
2026-05-04 23:13 25.96996 -80.18454 9800 ft 294 kts 337°
2026-05-04 23:13 25.98922 -80.19211 10518 ft 293 kts 330°
2026-05-04 23:13 26.00655 -80.20487 10717 ft 308 kts 315°
2026-05-04 23:14 26.02285 -80.22129 10993 ft 324 kts 313°
2026-05-04 23:14 26.03965 -80.23915 11178 ft 344 kts 312°
2026-05-04 23:14 26.05700 -80.25816 11654 ft 350 kts 312°
2026-05-04 23:14 26.07409 -80.27705 12640 ft 343 kts 311°
2026-05-04 23:15 26.09145 -80.29502 13378 ft 348 kts 314°
2026-05-04 23:15 26.10999 -80.31301 13779 ft 360 kts 315°
2026-05-04 23:15 26.12906 -80.33113 14453 ft 358 kts 315°
2026-05-04 23:15 26.14786 -80.34913 15232 ft 356 kts 315°
2026-05-04 23:16 26.16677 -80.36750 15647 ft 365 kts 314°
2026-05-04 23:16 26.18600 -80.38676 15851 ft 378 kts 313°
2026-05-04 23:16 26.20538 -80.40627 16633 ft 372 kts 314°
2026-05-04 23:16 26.22451 -80.42523 17525 ft 367 kts 315°
2026-05-04 23:17 26.24629 -80.44085 18033 ft 380 kts 328°
2026-05-04 23:17 26.27049 -80.45349 18521 ft 385 kts 330°
2026-05-04 23:17 26.29503 -80.46556 19058 ft 386 kts 330°
2026-05-04 23:17 26.31966 -80.47777 19579 ft 388 kts 330°
2026-05-04 23:18 26.34425 -80.49031 20057 ft 390 kts 329°
2026-05-04 23:18 26.36891 -80.50318 20529 ft 393 kts 329°
2026-05-04 23:18 26.39368 -80.51629 21015 ft 395 kts 329°
2026-05-04 23:18 26.41852 -80.52952 21466 ft 398 kts 329°
2026-05-04 23:19 26.44358 -80.54288 21919 ft 400 kts 329°
2026-05-04 23:19 26.46869 -80.55626 22428 ft 401 kts 329°
2026-05-04 23:19 26.49422 -80.56906 22874 ft 406 kts 333°
2026-05-04 23:19 26.52141 -80.57897 23279 ft 413 kts 338°
2026-05-04 23:20 26.54897 -80.58734 23674 ft 417 kts 339°
2026-05-04 23:20 26.57714 -80.59549 24044 ft 419 kts 339°
2026-05-04 23:20 26.60539 -80.60376 24411 ft 420 kts 339°
2026-05-04 23:20 26.63371 -80.61230 24765 ft 422 kts 338°
2026-05-04 23:21 26.66207 -80.62109 25135 ft 423 kts 338°
2026-05-04 23:21 26.69048 -80.63005 25492 ft 425 kts 338°
2026-05-04 23:21 26.71906 -80.63913 25849 ft 427 kts 337°
2026-05-04 23:21 26.74772 -80.64828 26201 ft 428 kts 337°
2026-05-04 23:22 26.77649 -80.65746 26535 ft 430 kts 337°
2026-05-04 23:22 26.80535 -80.66667 26868 ft 432 kts 337°
2026-05-04 23:22 26.83436 -80.67593 27186 ft 434 kts 337°
2026-05-04 23:22 26.86310 -80.68510 27509 ft 436 kts 337°
2026-05-04 23:23 26.89227 -80.69441 27920 ft 436 kts 337°
2026-05-04 23:23 26.92136 -80.70375 28391 ft 433 kts 336°
2026-05-04 23:23 26.94995 -80.71396 28905 ft 429 kts 334°
2026-05-04 23:23 26.97813 -80.72474 29393 ft 426 kts 333°
2026-05-04 23:24 27.00614 -80.73566 29846 ft 425 kts 333°
2026-05-04 23:24 27.03410 -80.74653 30279 ft 424 kts 333°
2026-05-04 23:24 27.06205 -80.75730 30661 ft 423 kts 333°
2026-05-04 23:24 27.08995 -80.76797 30972 ft 424 kts 333°
2026-05-04 23:25 27.11795 -80.77862 31291 ft 424 kts 334°
2026-05-04 23:25 27.14591 -80.78923 31636 ft 424 kts 334°
2026-05-04 23:25 27.17391 -80.79984 32010 ft 424 kts 334°
2026-05-04 23:25 27.20205 -80.81053 32007 ft 429 kts 334°
2026-05-04 23:26 27.25814 -80.83181 32012 ft 426 kts 334°
2026-05-04 23:26 27.31388 -80.85297 32017 ft 421 kts 334°
2026-05-04 23:27 27.36927 -80.87503 32017 ft 421 kts 332°
2026-05-04 23:27 27.42404 -80.89781 32045 ft 422 kts 332°
2026-05-04 23:28 27.47933 -80.92079 32046 ft 423 kts 333°
2026-05-04 23:28 27.53462 -80.94364 32034 ft 422 kts 333°
2026-05-04 23:29 27.58968 -80.96636 32034 ft 420 kts 333°
2026-05-04 23:29 27.64444 -80.98898 32034 ft 418 kts 333°
2026-05-04 23:30 27.69905 -81.01158 32037 ft 416 kts 333°
2026-05-04 23:30 27.75314 -81.03399 32037 ft 415 kts 333°
2026-05-04 23:31 27.80733 -81.05647 32044 ft 415 kts 333°
2026-05-04 23:31 27.85242 -81.07519 32045 ft 415 kts 333°
2026-05-04 23:32 27.90662 -81.09771 32045 ft 415 kts 333°
2026-05-04 23:32 27.96087 -81.12028 32047 ft 415 kts 333°
2026-05-04 23:33 28.01516 -81.14289 32048 ft 416 kts 333°
2026-05-04 23:33 28.06874 -81.16705 32053 ft 413 kts 329°
2026-05-04 23:34 28.12053 -81.19420 32052 ft 413 kts 328°
2026-05-04 23:34 28.17281 -81.22166 32060 ft 414 kts 329°
2026-05-04 23:35 28.22531 -81.24882 32071 ft 415 kts 329°
2026-05-04 23:35 28.27784 -81.27588 32074 ft 415 kts 329°
2026-05-04 23:36 28.33041 -81.30299 32061 ft 414 kts 329°
2026-05-04 23:36 28.38290 -81.32992 32062 ft 413 kts 329°
2026-05-04 23:37 28.43526 -81.35658 32072 ft 411 kts 329°
2026-05-04 23:37 28.48733 -81.38314 32062 ft 409 kts 329°
2026-05-04 23:38 28.53918 -81.40965 32065 ft 407 kts 329°
2026-05-04 23:38 28.59084 -81.43614 32077 ft 415 kts 329°
2026-05-04 23:39 28.64425 -81.46358 32073 ft 426 kts 329°
2026-05-04 23:39 28.69900 -81.49168 32107 ft 436 kts 329°
2026-05-04 23:40 28.75495 -81.52041 32072 ft 444 kts 329°
2026-05-04 23:40 28.81150 -81.54947 32055 ft 446 kts 330°
2026-05-04 23:41 28.86815 -81.57863 32056 ft 446 kts 329°
2026-05-04 23:41 28.92545 -81.60508 32054 ft 453 kts 338°
2026-05-04 23:42 28.98848 -81.61593 32097 ft 463 kts 348°
2026-05-04 23:42 29.05285 -81.62113 32071 ft 464 kts 349°
2026-05-04 23:43 29.11720 -81.62652 32063 ft 463 kts 348°
2026-05-04 23:43 29.18143 -81.63229 32065 ft 463 kts 348°
2026-05-04 23:44 29.24527 -81.63818 32069 ft 462 kts 348°
2026-05-04 23:44 29.30949 -81.64412 32078 ft 463 kts 348°
2026-05-04 23:45 29.37366 -81.65005 32081 ft 463 kts 348°
2026-05-04 23:45 29.43787 -81.65598 32074 ft 463 kts 348°
2026-05-04 23:46 29.50193 -81.66190 32072 ft 461 kts 348°
2026-05-04 23:46 29.56572 -81.66780 32116 ft 459 kts 348°
2026-05-04 23:47 29.62901 -81.67366 32079 ft 452 kts 347°
2026-05-04 23:47 29.69149 -81.67947 32080 ft 450 kts 347°
2026-05-04 23:48 29.75392 -81.68525 32080 ft 450 kts 347°
2026-05-04 23:48 29.81601 -81.69096 32077 ft 450 kts 347°
2026-05-04 23:49 29.87860 -81.69673 32096 ft 451 kts 347°
2026-05-04 23:49 29.94117 -81.70252 32078 ft 451 kts 347°
2026-05-04 23:50 30.00396 -81.70833 32068 ft 452 kts 347°
2026-05-04 23:50 30.06659 -81.71413 32079 ft 452 kts 347°
2026-05-04 23:51 30.12897 -81.71991 32073 ft 452 kts 347°
2026-05-04 23:51 30.19188 -81.72576 32079 ft 453 kts 347°
2026-05-04 23:52 30.25463 -81.73159 32083 ft 453 kts 347°
2026-05-04 23:52 30.31745 -81.73743 32096 ft 452 kts 347°
2026-05-04 23:53 30.38017 -81.74328 32139 ft 452 kts 347°
2026-05-04 23:53 30.44290 -81.74914 32063 ft 452 kts 347°
2026-05-04 23:54 30.50561 -81.75500 32075 ft 451 kts 347°
2026-05-04 23:54 30.56817 -81.76086 32077 ft 451 kts 347°
2026-05-04 23:55 30.62935 -81.77230 32087 ft 437 kts 335°
2026-05-04 23:56 30.71052 -81.81576 32133 ft 427 kts 326°
2026-05-04 23:56 30.76329 -81.84684 32115 ft 428 kts 326°
2026-05-04 23:57 30.81664 -81.87798 32116 ft 428 kts 326°
2026-05-04 23:57 30.86992 -81.90894 32081 ft 428 kts 326°
2026-05-04 23:58 30.92325 -81.93992 32081 ft 428 kts 326°
2026-05-04 23:58 30.97654 -81.97091 32095 ft 428 kts 326°
2026-05-04 23:59 31.02993 -82.00201 32098 ft 429 kts 326°
2026-05-04 23:59 31.08328 -82.03311 32061 ft 423 kts 326°
2026-05-05 00:00 31.13470 -82.06304 32064 ft 411 kts 326°
2026-05-05 00:00 31.18579 -82.09294 32067 ft 410 kts 326°
2026-05-05 00:01 31.23693 -82.12293 32072 ft 411 kts 326°
2026-05-05 00:01 31.28880 -82.15341 32340 ft 420 kts 327°
2026-05-05 00:01 31.31496 -82.16877 32568 ft 422 kts 327°
2026-05-05 00:02 31.34123 -82.18418 32910 ft 421 kts 327°
2026-05-05 00:02 31.36741 -82.19953 33047 ft 423 kts 327°
2026-05-05 00:02 31.39378 -82.21502 33056 ft 423 kts 327°
2026-05-05 00:03 31.44610 -82.24576 33048 ft 417 kts 326°
2026-05-05 00:03 31.49785 -82.27622 33061 ft 416 kts 326°
2026-05-05 00:04 31.54960 -82.30677 33052 ft 416 kts 326°
2026-05-05 00:04 31.60139 -82.33737 33049 ft 418 kts 327°
2026-05-05 00:05 31.65333 -82.36809 33059 ft 419 kts 327°
2026-05-05 00:05 31.70508 -82.39872 33043 ft 420 kts 327°
2026-05-05 00:06 31.75723 -82.42963 33046 ft 420 kts 327°
2026-05-05 00:06 31.80939 -82.46058 33040 ft 419 kts 327°
2026-05-05 00:07 31.86142 -82.49150 33083 ft 419 kts 327°
2026-05-05 00:07 31.91351 -82.52250 33064 ft 420 kts 327°
2026-05-05 00:08 31.96499 -82.55491 33049 ft 417 kts 321°
2026-05-05 00:08 32.00881 -82.59745 33046 ft 402 kts 314°
2026-05-05 00:09 32.05074 -82.64076 33056 ft 400 kts 314°
2026-05-05 00:09 32.09261 -82.68373 33058 ft 402 kts 314°
2026-05-05 00:10 32.13462 -82.72661 32754 ft 393 kts 314°
2026-05-05 00:10 32.15510 -82.74748 32430 ft 386 kts 314°
2026-05-05 00:10 32.17535 -82.76815 32013 ft 383 kts 314°
2026-05-05 00:10 32.19538 -82.78863 31607 ft 379 kts 315°
2026-05-05 00:11 32.21523 -82.80893 31202 ft 375 kts 315°
2026-05-05 00:11 32.23500 -82.82918 30819 ft 378 kts 315°
2026-05-05 00:11 32.25502 -82.84973 30418 ft 384 kts 315°
2026-05-05 00:11 32.27516 -82.87037 29946 ft 383 kts 315°
2026-05-05 00:12 32.29519 -82.89090 29481 ft 379 kts 315°
2026-05-05 00:12 32.31510 -82.91131 29044 ft 376 kts 315°
2026-05-05 00:12 32.33474 -82.93145 28635 ft 371 kts 315°
2026-05-05 00:12 32.35416 -82.95139 28193 ft 368 kts 315°
2026-05-05 00:13 32.37340 -82.97116 27780 ft 365 kts 315°
2026-05-05 00:13 32.39239 -82.99070 27112 ft 369 kts 315°
2026-05-05 00:13 32.41179 -83.01069 26610 ft 368 kts 315°
2026-05-05 00:13 32.43113 -83.03062 26155 ft 367 kts 315°
2026-05-05 00:14 32.45032 -83.05040 25759 ft 364 kts 315°
2026-05-05 00:14 32.46935 -83.07003 25351 ft 362 kts 315°
2026-05-05 00:14 32.48827 -83.08957 24954 ft 360 kts 315°
2026-05-05 00:14 32.50707 -83.10900 24562 ft 357 kts 315°
2026-05-05 00:15 32.52576 -83.12832 24155 ft 355 kts 315°
2026-05-05 00:15 32.53806 -83.14105 23915 ft 354 kts 315°
2026-05-05 00:15 32.55655 -83.16017 23502 ft 352 kts 315°
2026-05-05 00:15 32.58095 -83.18543 22925 ft 349 kts 315°
2026-05-05 00:16 32.59328 -83.19819 22645 ft 348 kts 315°
2026-05-05 00:16 32.61738 -83.22318 22051 ft 346 kts 315°
2026-05-05 00:16 32.62958 -83.23583 21783 ft 344 kts 315°
2026-05-05 00:16 32.64758 -83.25450 21399 ft 342 kts 315°
2026-05-05 00:17 32.66542 -83.27303 21012 ft 339 kts 315°
2026-05-05 00:17 32.68292 -83.29122 20643 ft 337 kts 315°
2026-05-05 00:17 32.70049 -83.30948 20282 ft 335 kts 315°
2026-05-05 00:17 32.71798 -83.32768 19927 ft 334 kts 315°
2026-05-05 00:18 32.73551 -83.34594 19559 ft 336 kts 315°
2026-05-05 00:18 32.75314 -83.36431 19191 ft 337 kts 315°
2026-05-05 00:18 32.77075 -83.38267 18817 ft 336 kts 315°
2026-05-05 00:18 32.78834 -83.40100 18427 ft 335 kts 315°
2026-05-05 00:19 32.80589 -83.41931 18033 ft 334 kts 315°
2026-05-05 00:19 32.82331 -83.43749 17635 ft 332 kts 315°
2026-05-05 00:19 32.84065 -83.45560 17259 ft 330 kts 315°
2026-05-05 00:19 32.85781 -83.47353 16890 ft 328 kts 316°
2026-05-05 00:20 32.87467 -83.49117 16534 ft 326 kts 316°
2026-05-05 00:20 32.89167 -83.50895 16181 ft 324 kts 316°
2026-05-05 00:20 32.90855 -83.52661 15818 ft 322 kts 316°
2026-05-05 00:20 32.92537 -83.54423 15471 ft 321 kts 316°
2026-05-05 00:21 32.94208 -83.56173 15108 ft 320 kts 316°
2026-05-05 00:21 32.95885 -83.57930 14668 ft 321 kts 316°
2026-05-05 00:21 32.97565 -83.59690 14286 ft 321 kts 317°
2026-05-05 00:21 32.99240 -83.61443 13934 ft 320 kts 317°
2026-05-05 00:22 33.00890 -83.63173 13552 ft 319 kts 317°
2026-05-05 00:22 33.02555 -83.64917 13174 ft 318 kts 317°
2026-05-05 00:22 33.04211 -83.66654 12810 ft 316 kts 317°
2026-05-05 00:22 33.05852 -83.68377 12457 ft 314 kts 317°
2026-05-05 00:23 33.07487 -83.70094 12110 ft 312 kts 317°
2026-05-05 00:23 33.09108 -83.71799 11763 ft 310 kts 317°
2026-05-05 00:23 33.10728 -83.73501 11422 ft 309 kts 316°
2026-05-05 00:23 33.12326 -83.75182 11254 ft 301 kts 316°
2026-05-05 00:24 33.13872 -83.76808 11107 ft 294 kts 316°
2026-05-05 00:24 33.15399 -83.78418 10797 ft 293 kts 316°
2026-05-05 00:24 33.16905 -83.80010 10504 ft 291 kts 316°
2026-05-05 00:24 33.18420 -83.81611 10203 ft 291 kts 316°
2026-05-05 00:25 33.19896 -83.83229 10007 ft 285 kts 313°
2026-05-05 00:25 33.21313 -83.84912 9682 ft 288 kts 312°
2026-05-05 00:25 33.22727 -83.86621 9377 ft 290 kts 313°
2026-05-05 00:25 33.24151 -83.88338 9072 ft 291 kts 313°
2026-05-05 00:26 33.25578 -83.90048 8774 ft 289 kts 313°
2026-05-05 00:26 33.26997 -83.91742 8479 ft 287 kts 313°
2026-05-05 00:26 33.28406 -83.93422 8182 ft 286 kts 313°
2026-05-05 00:26 33.29806 -83.95093 7998 ft 281 kts 313°
2026-05-05 00:27 33.31176 -83.96731 7938 ft 277 kts 313°
2026-05-05 00:27 33.32541 -83.98366 7889 ft 280 kts 313°
2026-05-05 00:27 33.33930 -84.00030 7843 ft 285 kts 313°
2026-05-05 00:27 33.35346 -84.01699 7767 ft 286 kts 317°
2026-05-05 00:28 33.37105 -84.02800 7694 ft 289 kts 345°
2026-05-05 00:28 33.39103 -84.03021 7673 ft 289 kts 358°
2026-05-05 00:28 33.41110 -84.03029 7609 ft 289 kts 359°
2026-05-05 00:28 33.43122 -84.03042 7534 ft 289 kts 358°
2026-05-05 00:29 33.45131 -84.03070 7473 ft 289 kts 358°
2026-05-05 00:29 33.47140 -84.03061 7395 ft 288 kts
2026-05-05 00:29 33.49141 -84.02741 7357 ft 291 kts
2026-05-05 00:29 33.51141 -84.02328 7301 ft 292 kts
2026-05-05 00:30 33.53145 -84.01931 7241 ft 291 kts
2026-05-05 00:30 33.55143 -84.01557 7183 ft 290 kts
2026-05-05 00:30 33.57141 -84.01194 7124 ft 290 kts
2026-05-05 00:30 33.59137 -84.00963 7049 ft 287 kts 353°
2026-05-05 00:31 33.60951 -84.01668 6988 ft 272 kts 324°
2026-05-05 00:31 33.62282 -84.03204 6666 ft 266 kts 300°
2026-05-05 00:31 33.63027 -84.05204 6321 ft 263 kts 280°
2026-05-05 00:31 33.63169 -84.07385 5944 ft 262 kts 268°
2026-05-05 00:32 33.63176 -84.09575 5652 ft 261 kts 268°
2026-05-05 00:32 33.63184 -84.11743 5431 ft 258 kts 268°
2026-05-05 00:32 33.63210 -84.13877 5234 ft 253 kts 268°
2026-05-05 00:32 33.63223 -84.15950 5108 ft 246 kts 267°
2026-05-05 00:33 33.63221 -84.18002 4825 ft 246 kts 267°
2026-05-05 00:33 33.63215 -84.20065 4505 ft 248 kts 267°
2026-05-05 00:33 33.63209 -84.22140 4190 ft 248 kts 267°
2026-05-05 00:33 33.63205 -84.24175 3858 ft 239 kts 266°
2026-05-05 00:34 33.63202 -84.26118 3548 ft 226 kts 267°
2026-05-05 00:34 33.63199 -84.27957 3253 ft 214 kts 266°
2026-05-05 00:34 33.63196 -84.29691 2983 ft 203 kts 266°
2026-05-05 00:34 33.63194 -84.31321 2735 ft 188 kts 266°
2026-05-05 00:35 33.63192 -84.32840 2487 ft 175 kts 266°
2026-05-05 00:35 33.63190 -84.34214 2270 ft 158 kts 265°
2026-05-05 00:35 33.63188 -84.35507 2070 ft 152 kts 264°
2026-05-05 00:35 33.63186 -84.36769 1877 ft 152 kts 265°
2026-05-05 00:36 33.63181 -84.38041 1664 ft 154 kts 266°
2026-05-05 00:36 33.63183 -84.39337 1453 ft 156 kts 267°
2026-05-05 00:36 33.63183 -84.40647 1245 ft 158 kts 267°
2026-05-05 00:36 33.63185 -84.41956 1046 ft 155 kts 268°
2026-05-05 00:37 33.63183 -84.43171 1009 ft 133 kts 268°
2026-05-05 00:37 33.63182 -84.44020 1003 ft 70 kts 270°
2026-05-05 00:37 33.63183 -84.44384 1003 ft 28 kts 269°
2026-05-05 00:37 33.63182 -84.44553 1005 ft 17 kts 270°
2026-05-05 00:38 33.63182 -84.44691 1006 ft 12 kts 270°
2026-05-05 00:38 33.63221 -84.44775 1006 ft 13 kts 338°
2026-05-05 00:38 33.63313 -84.44780 1005 ft 13 kts
2026-05-05 00:38 33.63363 -84.44780 1005 ft 0 kts 360°
2026-05-05 00:39 33.63393 -84.44780 1005 ft 10 kts 360°
2026-05-05 00:39 33.63496 -84.44780 1005 ft 18 kts
2026-05-05 00:39 33.63554 -84.44779 1005 ft 0 kts
2026-05-05 00:40 33.63558 -84.44779 1005 ft 2 kts
2026-05-05 00:41 33.63610 -84.44777 1005 ft 11 kts
2026-05-05 00:41 33.63661 -84.44699 1005 ft 14 kts 82°
2026-05-05 00:41 33.63665 -84.44586 1005 ft 13 kts 91°
2026-05-05 00:41 33.63663 -84.44483 1005 ft 13 kts 91°
2026-05-05 00:42 33.63663 -84.44377 1005 ft 12 kts 90°
2026-05-05 00:42 33.63663 -84.44275 1006 ft 12 kts 89°
2026-05-05 00:42 33.63665 -84.44174 1006 ft 12 kts 82°
2026-05-05 00:42 33.63720 -84.44116 1006 ft 12 kts
2026-05-05 00:43 33.63799 -84.44114 1005 ft 11 kts
2026-05-05 00:43 33.63876 -84.44114 1005 ft 11 kts 360°
2026-05-05 00:43 33.63951 -84.44114 1005 ft 11 kts
2026-05-05 00:43 33.64024 -84.44114 1005 ft 10 kts
2026-05-05 00:44 33.64094 -84.44114 1005 ft 10 kts 359°
2026-05-05 00:44 33.64163 -84.44115 1005 ft 10 kts 359°
2026-05-05 00:44 33.64229 -84.44117 1005 ft 9 kts 359°
2026-05-05 00:44 33.64267 -84.44118 1005 ft 0 kts 359°
2026-05-05 00:45 33.64275 -84.44126 1005 ft 5 kts 313°
2026-05-05 00:46 33.64295 -84.44175 1005 ft 4 kts 293°
2026-05-05 00:46 33.64299 -84.44189 1005 ft 0 kts 292°